Temperature
14 14 14 14 14 14 14 14 14 14 13 13 13 13 14 14 14 14 14 14 14 14 14 14 15 15 15 15 15 15 15 15 15 15 15 15 15 15
14 14 14 14 14 14 14 14 14 14 13 13 13 13 13 13 14 14 14 14 14 14 14 14 14 15 15 15 15 15 15 15 15 15 15 15 15 15
14 14 14 14 14 14 14 14 14 14 13 13 13 13 13 13 13 14 14 14 14 14 14 14 14 14 14 14 14 14 14 14 15 14 15 15 15 15
14 14 14 14 14 14 13 13 13 13 13 13 13 13 13 13 13 13 13 13 13 13 14 14 14 14 14 14 14 14 14 14 14 14 14 14 14 14
14 14 14 14 14 13 13 13 13 13 13 13 12 13 13 13 13 13 13 13 13 13 13 13 13 13 13 13 13 13 13 13 14 14 14 14 14 14
13 13 13 13 13 13 13 13 12 12 12 12 12 12 12 12 12 13 13 13 13 13 13 13 13 13 13 13 13 13 13 13 13 13 13 13 13 13
13 13 13 13 13 12 12 12 12 12 12 12 12 12 12 12 11 12 12 12 12 12 12 12 12 12 12 12 12 12 12 12 12 12 12 12 12 13
13 13 13 12 12 12 12 12 12 12 12 11 11 11 11 11 11 11 11 11 11 11 11 12 12 12 12 12 12 12 12 12 12 12 12 12 12 12
12 12 12 12 12 12 12 11 11 11 11 11 11 10 10 10 10 10 10 10 10 10 11 11 11 11 11 11 11 11 11 11 11 11 11 11 11 11
12 12 12 12 12 11 11 11 11 11 11 10 10 10 10 10 10 10 10 10 10 10 10 10 10 10 10 10 11 10 10 11 11 11 11 11 11 11
12 11 11 11 11 11 11 11 11 10 10 10 10 10 10 10 10 10 10 10 9 10 9 9 9 10 10 10 10 10 10 10 10 10 10 10 10 10
11 11 11 11 11 11 11 10 10 10 10 10 10 10 10 9 9 9 9 9 9 8 8 8 8 8 9 9 9 9 10 10 10 10 10 10 10 10
11 11 11 10 10 10 10 10 10 10 9 9 9 9 9 9 9 9 8 8 8 8 8 7 7 8 7 8 9 9 9 9 9 9 9 9 9 9
11 11 10 10 10 10 10 10 9 9 9 9 9 9 9 9 8 8 8 8 8 8 7 7 7 7 7 7 7 8 8 8 8 8 8 8 8 8
10 10 10 10 10 9 9 9 9 9 9 9 9 8 8 8 8 8 8 8 8 7 7 7 7 7 7 7 7 7 7 8 8 7 7 8 7 7
10 10 10 9 9 9 9 9 9 8 8 8 8 8 8 8 8 8 8 7 7 7 7 7 7 7 6 7 6 7 7 6 7 7 7 7 7 7
10 10 9 9 9 9 9 8 8 8 8 8 8 7 7 7 7 7 7 7 7 7 7 7 6 6 6 6 6 6 6 6 6 6 6 6 7 6
9 9 9 9 9 8 8 8 8 8 7 7 7 7 7 7 6 6 6 6 6 6 6 6 6 6 6 6 6 6 6 6 6 5 5 5 5 6
9 9 9 8 8 8 8 7 7 7 7 7 6 6 6 6 6 6 6 5 5 5 5 5 5 5 4 5 5 5 5 5 5 5 4 4 4 5
9 8 8 8 8 8 7 7 7 7 6 6 6 6 6 6 5 5 5 5 5 5 5 5 4 4 4 4 4 4 4 4 4 4 4 4 4 4
8 8 8 8 7 7 7 7 6 6 6 6 6 5 5 5 5 5 4 4 4 4 4 4 4 4 3 3 3 4 4 4 3 3 3 3 3 3
8 8 7 7 7 7 7 6 6 6 6 5 5 5 5 4 4 4 4 4 4 4 4 4 4 3 3 3 3 3 3 3 3 3 2 2 2 2
7 7 7 7 7 6 6 6 6 5 5 5 5 4 4 4 4 4 3 3 3 3 3 3 3 3 2 2 2 2 2 2 2 2 3 2 2 2
Wind_Speed
5 5 4 3 3 3 2 2 3 2 2 3 3 5 8 8 10 8 8 9 10 9 10 10 11 11 11 10 9 8 8 7 6 5 4 2 1 1
4 5 5 3 4 3 3 2 2 3 1 2 2 3 5 7 10 9 9 9 9 9 9 10 10 10 10 10 9 9 9 8 8 6 5 3 2 1
5 6 5 4 4 4 3 3 3 2 2 2 2 3 5 6 8 10 10 9 8 9 9 9 9 9 9 9 9 8 8 8 8 7 5 4 3 3
5 5 5 4 5 4 4 4 3 2 2 1 3 4 4 5 5 6 8 9 8 10 11 9 8 8 9 9 9 8 7 7 7 7 6 5 5 4
4 4 4 5 5 4 4 4 3 4 3 2 2 2 3 4 5 5 6 6 8 10 11 10 10 9 9 9 8 8 7 7 7 7 7 7 7 7
4 4 3 3 3 3 4 4 3 4 4 3 2 3 3 4 4 5 6 5 5 8 10 10 10 11 10 10 9 9 9 9 8 8 8 8 8 9
4 4 4 5 5 4 4 3 3 3 3 3 2 3 3 4 4 3 4 5 4 4 5 6 8 8 10 11 10 11 11 11 10 10 10 10 11 11
4 3 4 5 6 7 7 6 4 3 2 2 1 2 3 3 3 3 3 4 4 4 4 5 5 4 6 8 10 12 13 12 12 12 12 12 12 12
3 3 3 4 5 3 5 7 6 5 3 2 1 1 2 3 2 3 3 2 3 4 3 4 4 4 6 8 11 11 12 13 13 13 13 13 13 13
2 2 2 2 3 3 3 4 4 3 3 2 1 2 2 2 1 2 3 3 4 3 2 2 4 4 6 8 10 11 12 13 14 14 14 14 14 14
2 2 2 1 4 4 3 3 3 4 5 5 5 5 6 5 4 2 3 3 4 4 2 1 4 5 4 4 8 10 12 13 14 13 13 14 14 14
2 2 2 2 3 3 2 2 2 4 4 6 7 8 8 7 7 2 1 1 2 3 3 2 3 4 4 3 4 8 10 12 13 13 14 14 14 11
1 1 2 3 3 3 2 1 1 2 2 3 4 5 5 5 5 5 3 2 2 4 4 2 2 2 3 5 4 5 7 8 9 10 13 14 15 11
1 1 1 3 3 4 3 2 3 3 2 2 3 4 4 5 5 6 6 5 5 6 6 3 2 3 4 5 6 5 5 7 7 6 9 13 13 14
2 2 1 2 3 3 4 4 3 1 1 2 3 4 4 5 5 5 6 7 6 7 8 6 3 4 3 5 6 6 6 5 4 5 6 6 7 8
0 1 2 2 2 2 3 3 2 1 1 2 3 4 4 3 4 4 4 4 4 5 7 9 7 4 5 6 6 7 6 4 5 6 6 6 7 9
2 1 1 1 2 2 3 3 2 2 2 2 2 3 4 4 4 3 3 3 3 5 6 5 7 7 6 6 6 7 6 6 6 6 6 8 7 7
3 1 1 1 2 2 3 3 2 2 3 3 3 3 4 4 5 4 3 3 4 5 6 5 5 6 5 5 6 6 6 6 7 6 5 7 9 8
2 2 3 3 3 3 3 3 3 3 3 3 3 4 4 4 4 4 4 4 4 5 5 5 4 4 7 10 6 5 6 7 7 7 6 7 9 10
2 3 4 4 4 4 3 3 4 3 3 3 3 4 4 4 4 4 4 5 5 6 6 5 4 5 7 9 9 7 8 7 7 8 8 8 8 11
3 3 4 4 4 4 4 4 4 4 4 4 4 5 4 4 5 5 5 7 7 6 7 7 7 9 6 5 7 7 6 10 10 9 8 8 9 8
4 4 4 4 4 4 4 4 4 4 4 4 5 5 5 5 6 7 6 6 6 7 8 7 7 5 4 6 9 10 9 8 11 14 13 12 8 9
5 4 4 4 4 4 4 4 5 5 5 5 5 5 5 5 5 6 6 7 7 8 7 7 6 5 6 7 8 9 11 10 8 8 8 13 16 18
Wind_Direction
62 61 57 38 47 52 71 109 127 89 355 334 345 343 0 16 12 16 11 9 15 20 21 21 21 20 23 28 32 34 34 39 47 58 69 80 143 226
61 62 50 36 40 41 54 57 87 132 124 319 328 329 356 11 10 13 10 11 13 16 18 18 20 21 21 23 29 35 37 37 39 38 40 44 54 30
56 64 51 43 48 38 42 49 52 88 113 327 333 344 5 5 3 8 11 12 7 8 10 13 16 17 16 18 22 30 32 28 25 22 18 8 354 336
61 61 45 49 47 40 46 47 45 55 104 30 347 353 360 355 357 360 9 11 7 11 12 10 9 13 14 15 17 18 17 15 11 5 356 345 331 318
73 71 55 60 54 45 52 50 40 46 55 76 0 351 350 355 358 357 1 2 7 10 10 9 8 6 7 5 7 6 2 355 348 342 337 331 324 315
66 69 63 71 77 70 61 52 52 50 45 49 21 357 348 341 1 358 354 348 347 3 6 7 5 5 3 360 356 355 350 343 338 332 325 321 317 312
52 48 53 63 67 75 75 71 68 59 47 41 21 4 352 354 352 339 341 329 333 354 352 357 1 2 359 359 357 352 347 343 338 333 327 321 316 311
63 43 45 48 51 55 59 65 78 86 79 61 25 358 325 319 324 340 340 351 336 336 351 336 354 345 343 354 358 359 356 352 347 341 336 329 323 317
85 64 52 43 46 49 45 45 45 55 78 122 115 288 298 307 332 342 334 317 291 303 341 323 331 326 326 338 348 352 351 348 344 341 338 335 330 324
99 99 80 32 33 54 52 40 28 23 29 51 194 268 282 286 270 292 284 304 301 314 353 317 316 308 314 323 336 344 344 340 338 339 340 340 336 332
64 82 83 52 33 51 66 46 13 351 7 8 353 341 336 338 351 7 355 1 327 313 326 311 308 308 303 304 326 334 333 330 330 331 334 333 331 328
35 20 32 31 26 44 80 75 14 331 343 352 354 354 355 353 350 346 282 306 303 304 303 316 311 329 318 298 307 322 323 321 322 322 325 327 327 325
85 342 328 2 16 25 50 133 284 320 341 346 341 339 344 345 342 336 313 245 257 272 286 294 302 309 289 298 304 306 315 316 318 318 321 322 321 319
192 251 288 351 16 18 17 351 346 3 10 354 344 335 332 326 319 327 324 305 275 270 291 288 272 281 292 298 298 302 307 310 311 312 318 318 316 313
209 235 315 3 8 2 1 358 360 13 5 341 319 307 300 300 314 324 330 326 317 311 316 309 284 280 268 277 287 295 303 302 304 307 308 306 303 310
168 27 20 19 12 342 347 347 336 290 281 277 291 296 307 318 319 316 315 322 319 310 317 320 310 285 281 280 279 287 289 287 299 301 297 294 299 300
147 60 26 6 354 341 335 327 323 331 319 305 302 308 312 314 309 307 305 309 309 307 313 316 319 307 278 274 285 285 289 294 293 300 307 303 296 296
136 160 245 259 264 275 289 301 301 294 288 290 296 297 300 302 303 305 305 303 298 297 302 307 319 325 320 291 252 276 288 290 295 296 295 297 298 299
162 214 235 245 254 260 264 266 272 276 276 282 288 293 296 299 299 299 302 301 295 291 292 297 307 310 310 306 290 263 280 292 296 294 290 287 291 294
209 224 238 245 250 254 258 260 266 278 277 277 279 286 289 291 292 288 288 287 289 291 292 291 283 278 279 287 289 289 284 277 287 289 291 290 286 287
229 235 240 243 248 250 254 258 259 265 269 272 277 279 282 282 285 283 283 285 284 284 286 284 277 281 277 286 292 291 284 284 280 280 289 296 300 298
233 236 243 245 245 247 252 257 264 269 274 274 275 277 278 276 279 282 281 283 281 279 280 283 286 288 278 280 286 292 295 297 295 288 280 278 283 288
235 239 243 246 246 248 251 255 259 264 266 268 273 276 276 277 277 276 276 277 280 284 287 290 291 283 277 276 282 288 292 298 301 299 289 290 284 281
Height
1558 1558 1557 1557 1557 1556 1556 1556 1556 1555 1555 1554 1553 1552 1551 1550 1548 1547 1545 1543 1542 1540 1538 1537 1536 1535 1534 1534 1534 1533 1533 1533 1534 1534 1535 1536 1537 1538
1559 1558 1558 1558 1557 1557 1556 1556 1556 1555 1554 1554 1553 1552 1551 1550 1548 1547 1545 1544 1542 1541 1539 1538 1537 1536 1535 1535 1534 1534 1534 1534 1534 1534 1534 1535 1535 1536
1559 1559 1558 1558 1558 1557 1557 1556 1556 1555 1554 1554 1553 1552 1551 1549 1548 1546 1545 1543 1542 1541 1539 1538 1537 1536 1535 1535 1534 1534 1533 1533 1533 1533 1533 1533 1534 1534
1559 1559 1558 1558 1558 1557 1557 1556 1555 1555 1554 1553 1552 1551 1550 1549 1547 1546 1544 1543 1542 1541 1539 1538 1537 1536 1535 1534 1533 1533 1533 1532 1532 1531 1531 1531 1531 1531
1560 1560 1559 1558 1558 1557 1557 1556 1555 1555 1554 1553 1552 1551 1550 1548 1547 1545 1544 1543 1541 1540 1539 1538 1537 1536 1534 1533 1533 1532 1531 1531 1530 1530 1529 1528 1528 1527
1561 1560 1560 1559 1558 1557 1557 1556 1555 1555 1554 1553 1551 1550 1549 1548 1546 1544 1543 1542 1540 1539 1538 1537 1536 1534 1533 1532 1531 1531 1530 1529 1528 1527 1526 1525 1524 1524
1561 1560 1560 1559 1558 1558 1557 1556 1555 1554 1553 1552 1551 1549 1548 1546 1545 1543 1542 1540 1539 1538 1537 1536 1534 1533 1532 1531 1530 1529 1527 1526 1525 1524 1523 1522 1521 1520
1560 1560 1560 1559 1558 1558 1557 1556 1555 1554 1553 1551 1550 1548 1547 1546 1544 1543 1541 1539 1537 1537 1535 1534 1533 1531 1530 1529 1528 1526 1525 1524 1522 1521 1520 1518 1517 1516
1560 1559 1559 1558 1558 1557 1556 1555 1555 1553 1553 1551 1549 1548 1546 1545 1543 1542 1540 1539 1537 1535 1534 1532 1531 1529 1528 1527 1526 1524 1523 1521 1519 1518 1516 1514 1513 1511
1560 1559 1558 1558 1557 1556 1555 1554 1553 1552 1551 1550 1549 1547 1546 1544 1542 1541 1539 1537 1536 1534 1532 1530 1528 1526 1525 1524 1523 1521 1520 1518 1516 1514 1512 1510 1509 1507
1559 1558 1558 1557 1556 1555 1554 1553 1552 1551 1550 1549 1547 1546 1544 1543 1541 1539 1537 1535 1533 1531 1530 1528 1525 1523 1521 1520 1519 1518 1516 1514 1512 1510 1508 1506 1504 1502
1557 1557 1556 1555 1555 1554 1553 1551 1550 1549 1548 1547 1546 1544 1542 1541 1539 1537 1535 1533 1531 1529 1528 1526 1523 1521 1517 1516 1515 1514 1511 1509 1507 1506 1503 1501 1499 1496
1556 1555 1554 1554 1553 1552 1551 1550 1548 1547 1546 1544 1543 1541 1540 1538 1537 1535 1533 1531 1529 1527 1526 1524 1521 1519 1517 1513 1511 1509 1507 1505 1502 1501 1499 1497 1494 1492
1554 1553 1553 1552 1551 1550 1549 1548 1547 1545 1544 1542 1540 1539 1537 1535 1534 1532 1530 1528 1526 1525 1523 1521 1518 1516 1513 1509 1506 1504 1503 1501 1498 1496 1493 1491 1489 1487
1552 1551 1551 1550 1549 1548 1547 1546 1545 1543 1541 1539 1537 1536 1534 1532 1530 1528 1526 1525 1523 1521 1519 1517 1515 1512 1510 1507 1503 1500 1498 1495 1494 1491 1488 1486 1483 1481
1550 1549 1549 1548 1547 1546 1544 1543 1542 1540 1539 1537 1535 1533 1531 1529 1527 1524 1522 1520 1517 1515 1515 1513 1510 1508 1505 1503 1500 1496 1494 1491 1488 1486 1483 1480 1478 1476
1547 1547 1546 1545 1544 1543 1541 1540 1539 1537 1535 1534 1532 1529 1527 1525 1523 1521 1518 1516 1513 1510 1508 1507 1505 1503 1501 1498 1495 1492 1489 1486 1484 1481 1477 1473 1471 1469
1545 1543 1542 1542 1541 1539 1538 1536 1535 1534 1532 1530 1528 1526 1523 1521 1518 1516 1514 1512 1509 1506 1504 1502 1500 1497 1495 1492 1491 1487 1484 1481 1478 1475 1472 1467 1463 1461
1541 1540 1539 1538 1537 1536 1535 1533 1531 1530 1528 1526 1524 1522 1519 1517 1514 1512 1510 1507 1505 1502 1500 1498 1496 1492 1489 1485 1483 1483 1479 1475 1472 1468 1466 1462 1457 1453
1537 1536 1535 1534 1533 1532 1531 1529 1527 1526 1524 1522 1519 1517 1515 1512 1510 1507 1505 1503 1500 1498 1495 1493 1491 1488 1485 1481 1477 1474 1474 1470 1466 1462 1458 1455 1451 1448
1533 1532 1531 1530 1529 1528 1526 1525 1523 1521 1519 1517 1514 1512 1510 1507 1505 1502 1500 1498 1495 1492 1489 1487 1485 1484 1480 1476 1472 1467 1466 1465 1462 1458 1453 1448 1443 1439
1529 1528 1527 1526 1525 1523 1522 1520 1518 1516 1514 1512 1509 1507 1504 1502 1499 1497 1494 1492 1489 1486 1483 1481 1479 1477 1474 1470 1465 1461 1457 1456 1454 1452 1449 1445 1441 1434
1524 1523 1522 1521 1520 1518 1516 1514 1512 1510 1508 1506 1504 1501 1499 1496 1494 1491 1489 1486 1483 1480 1477 1474 1472 1469 1466 1463 1459 1455 1451 1448 1445 1442 1440 1438 1435 1431